Eden Prairie, MN

2:24 AM CDT on October 01, 2016 (GMT -0500)
Flying Cloud

Weather History for KFCM - June, 2011

Change the Weather History Date:

Thursday, June 16, 2011

  Actual Average Record
Temperature  
Mean Temperature 67 °F -  
Max Temperature 78 °F 75 °F 89 °F (2003)
Min Temperature 57 °F 56 °F 48 °F (1999)
Cooling Degree Days 2    
Growing Degree Days 17 (Base 50)    
Moisture  
Dew Point 59 °F    
Average Humidity 78    
Maximum Humidity 96    
Minimum Humidity 56    
Precipitation  
Precipitation 0.00 in - - ()
Sea Level Pressure  
Sea Level Pressure 29.73 in    
Wind  
Wind Speed 4 mph (NW)    
Max Wind Speed 10 mph    
Max Gust Speed -    
Visibility 8 miles    
Events      
Averages and records for this station are not official NWS values.
T = Trace of Precipitation, MM = Missing Value Source: NWS Daily Summary

Daily Weather History Graph

Daily Weather History Graph

Search for Another Location

Airport or City:

Trip Planner

Search our weather history database for the weather conditions in past years. The results will help you decide how hot, cold, wet, or windy it might be!

Date:

Astronomy

Jun. 16, 2011 Rise Set
Actual Time 5:27 AM CDT 9:02 PM CDT
Civil Twilight 4:49 AM CDT 9:39 PM CDT
Nautical Twilight 4:00 AM CDT 10:28 PM CDT
Astronomical Twilight 2:56 AM CDT 11:33 PM CDT
Moon 9:56 PM CDT (6/16) 6:11 AM CDT (6/16)
Length of Visible Light 16h 49m
Length of Day
15h 34m
Full, 99% of the Moon is Illuminated
Jun 16
Full
Jun 23
Last Quarter
Jul 1
New
Jul 8
First Quarter
Jul 15
Full

Hourly Weather History & Observations

Time (CDT) Temp. Dew Point Humidity Pressure Visibility Wind Dir Wind Speed Gust Speed Precip Events Conditions
12:53 AM 60.1 °F 59.0 °F 96% 29.67 in 9.0 mi SSW 3.5 mph - N/A   Clear
1:53 AM 61.0 °F 59.0 °F 93% 29.67 in 8.0 mi WSW 3.5 mph - N/A   Overcast
2:53 AM 60.1 °F 59.0 °F 96% 29.67 in 6.0 mi WSW 4.6 mph - N/A   Partly Cloudy
3:53 AM 60.1 °F 59.0 °F 96% 29.68 in 7.0 mi WSW 4.6 mph - N/A   Partly Cloudy
4:53 AM 60.1 °F 57.9 °F 93% 29.69 in 6.0 mi WSW 4.6 mph - N/A   Clear
5:53 AM 57.9 °F 55.9 °F 93% 29.70 in 1.2 mi Calm Calm - N/A   Clear
5:59 AM 59.0 °F 57.2 °F 94% 29.70 in 3.0 mi West 3.5 mph - N/A   Clear
6:20 AM 59.0 °F 57.2 °F 94% 29.71 in 3.0 mi Calm Calm - N/A   Scattered Clouds
6:29 AM 59.0 °F 57.2 °F 94% 29.72 in 3.0 mi WSW 3.5 mph - N/A   Mostly Cloudy
6:53 AM 62.1 °F 59.0 °F 90% 29.71 in 6.0 mi WNW 4.6 mph - N/A   Mostly Cloudy
7:53 AM 64.0 °F 60.1 °F 87% 29.71 in 10.0 mi NNW 8.1 mph - N/A   Overcast
8:53 AM 66.0 °F 60.1 °F 81% 29.71 in 10.0 mi NNW 4.6 mph - N/A   Scattered Clouds
9:53 AM 66.0 °F 60.1 °F 81% 29.75 in 10.0 mi Calm Calm - N/A   Overcast
10:04 AM 68.0 °F 60.8 °F 78% 29.75 in 10.0 mi Calm Calm - N/A   Overcast
10:53 AM 68.0 °F 61.0 °F 78% 29.75 in 10.0 mi SW 4.6 mph - N/A   Overcast
11:53 AM 69.1 °F 61.0 °F 75% 29.77 in 10.0 mi WNW 3.5 mph - N/A   Overcast
12:53 PM 72.0 °F 61.0 °F 68% 29.75 in 10.0 mi Calm Calm - N/A   Scattered Clouds
1:53 PM 75.0 °F 61.0 °F 62% 29.75 in 10.0 mi Variable 4.6 mph - N/A   Partly Cloudy
2:53 PM 77.0 °F 62.1 °F 60% 29.75 in 10.0 mi NW 10.4 mph - N/A   Mostly Cloudy
3:53 PM 75.0 °F 60.1 °F 60% 29.74 in 10.0 mi North 4.6 mph - N/A   Mostly Cloudy
4:53 PM 77.0 °F 60.1 °F 56% 29.73 in 10.0 mi North 6.9 mph - N/A   Partly Cloudy
5:53 PM 75.9 °F 59.0 °F 56% 29.75 in 10.0 mi Calm Calm - N/A   Clear
6:53 PM 75.0 °F 59.0 °F 57% 29.75 in 9.0 mi NE 5.8 mph - N/A   Scattered Clouds
7:53 PM 73.0 °F 60.1 °F 64% 29.76 in 10.0 mi NNE 6.9 mph - N/A   Clear
8:53 PM 70.0 °F 59.0 °F 68% 29.77 in 10.0 mi NE 8.1 mph - N/A   Clear
9:53 PM 68.0 °F 57.9 °F 70% 29.78 in 10.0 mi ENE 5.8 mph - N/A   Clear
10:53 PM 66.0 °F 57.9 °F 75% 29.78 in 10.0 mi NE 5.8 mph - N/A   Clear
11:53 PM 64.9 °F 57.0 °F 75% 29.79 in 10.0 mi NE 8.1 mph - N/A   Clear